TimePDT,TemperatureF,Dew PointF,Humidity,Sea Level PressureIn,VisibilityMPH,Wind Direction,Wind SpeedMPH,Gust SpeedMPH,PrecipitationIn,Events,Conditions,WindDirDegrees,DateUTC
12:53 AM,64.9,50.0,58,29.99,10.0,NE,3.5,-,N/A,,Clear,40,2013-09-11 07:53:00
1:53 AM,63.0,52.0,67,30.00,10.0,NE,4.6,-,N/A,,Clear,40,2013-09-11 08:53:00
2:53 AM,63.0,51.1,65,30.00,10.0,NE,5.8,-,N/A,,Clear,40,2013-09-11 09:53:00
3:53 AM,63.0,51.1,65,30.00,10.0,NE,5.8,-,N/A,,Clear,40,2013-09-11 10:53:00
4:53 AM,61.0,50.0,67,30.01,10.0,NNE,4.6,-,N/A,,Clear,30,2013-09-11 11:53:00
5:53 AM,61.0,50.0,67,30.02,10.0,NE,4.6,-,N/A,,Clear,40,2013-09-11 12:53:00
6:53 AM,60.1,50.0,69,30.04,10.0,NE,4.6,-,N/A,,Clear,50,2013-09-11 13:53:00
7:53 AM,64.9,50.0,58,30.05,10.0,NE,9.2,-,N/A,,Clear,40,2013-09-11 14:53:00
8:53 AM,68.0,51.1,55,30.06,10.0,ENE,10.4,-,N/A,,Clear,60,2013-09-11 15:53:00
9:53 AM,72.0,51.1,48,30.06,10.0,NE,8.1,-,N/A,,Clear,50,2013-09-11 16:53:00
10:53 AM,77.0,51.1,40,30.06,10.0,NE,10.4,-,N/A,,Clear,40,2013-09-11 17:53:00
11:53 AM,80.1,51.1,36,30.05,10.0,ENE,9.2,17.3,N/A,,Clear,70,2013-09-11 18:53:00
12:53 PM,84.0,51.1,32,30.04,10.0,ENE,11.5,-,N/A,,Clear,60,2013-09-11 19:53:00
1:53 PM,87.1,50.0,28,30.03,10.0,ENE,10.4,17.3,N/A,,Clear,60,2013-09-11 20:53:00
2:53 PM,89.6,46.4,22,30.01,10.0,East,8.1,-,N/A,,Partly Cloudy,80,2013-09-11 21:53:00
3:53 PM,89.6,48.2,24,29.99,10.0,North,8.1,-,N/A,,Scattered Clouds,350,2013-09-11 22:53:00
4:53 PM,90.0,46.9,23,29.98,10.0,NNE,10.4,-,N/A,,Partly Cloudy,20,2013-09-11 23:53:00
5:53 PM,89.6,46.4,22,29.97,10.0,NNE,10.4,-,N/A,,Partly Cloudy,30,2013-09-12 00:53:00
6:53 PM,86.0,48.0,27,29.97,10.0,NNE,9.2,-,N/A,,Clear,30,2013-09-12 01:53:00
7:53 PM,80.1,48.9,34,29.97,10.0,NNE,5.8,-,N/A,,Clear,30,2013-09-12 02:53:00
8:53 PM,78.1,48.9,36,29.98,10.0,NE,3.5,-,N/A,,Clear,50,2013-09-12 03:53:00
9:53 PM,75.9,48.9,38,29.98,10.0,NE,4.6,-,N/A,,Clear,50,2013-09-12 04:53:00
10:53 PM,75.0,48.9,40,29.98,10.0,NE,3.5,-,N/A,,Clear,40,2013-09-12 05:53:00
11:53 PM,72.0,48.9,44,29.98,10.0,NE,4.6,-,N/A,,Clear,40,2013-09-12 06:53:00